Flag for Canada Weather past 2 weeks in Arviat, Nunavut Territory, Canada

Now
46 °F

Drizzle. Fog.


Feels Like: 40 °F
Forecast: N/A
Wind: 14 mph from East

Location: Arviat Airport

Current Time: Aug 20, 2014 at 5:23:28 PM

Latest Report: Aug 20, 2014 at 4:00 PM


Visibility: 5 mi

Pressure: 29.94 "Hg

Humidity: 93%

Dew point: 45 °F

Location of ArviatLocation

Historic Weather in Arviat — Graph

°F

Arviat temperature yesterday

Maximum temperature yesterday: 48 °F (at 2:05 PM)
Minimum temperature yesterday: 36 °F (at 5:00 AM)
Average temperature yesterday: 43 °F

Past Weeks' High & Low Weather Summary

 TemperatureHumidityPressure
High72 °F (Aug 6, 11:00 AM)100% (Aug 7, 7:05 AM)30.21 "Hg (Aug 7, 7:05 AM)
Low36 °F (Aug 19, 5:00 AM)43% (Aug 13, 1:00 PM)29.43 "Hg (Aug 14, 11:00 AM)
Average51 °F83%29.85 "Hg
* Reported Aug 5 4:00 PM — Aug 20 4:00 PM, Arviat, Weather by CustomWeather, © 2014

Note: Actual official high and low records may vary slightly from our data, if they occured in-between our weather recording intervals... More about our weather records

Advertising

Arviat weather history for previous 24 hours

 ConditionsComfort  
Time TempWeatherWind HumidityBarometerVisibility
4:00 PM
Aug 20
46 °FDrizzle. Fog.14 mph93%29.94 "Hg5 mi
3:47 PM46 °FDrizzle. Fog.17 mph93%29.93 "Hg4 mi
3:00 PM46 °FFog.18 mph93%29.92 "Hg6 mi
2:05 PM46 °FDrizzle. Fog.18 mph93%29.93 "Hg5 mi
1:00 PM46 °FFog.16 mph93%29.94 "Hg6 mi
12:00 PM46 °FMostly cloudy.16 mph87%29.95 "Hg10 mi
11:00 AM46 °FOvercast.21 mph87%29.95 "Hg10 mi
10:00 AM45 °FOvercast.21 mph93%29.96 "Hg12 mi
9:00 AM45 °FOvercast.20 mph93%29.96 "Hg12 mi
8:00 AM45 °FOvercast.18 mph93%29.97 "Hg15 mi
7:00 AM45 °FOvercast.17 mph93%29.97 "Hg15 mi
6:00 AM45 °FOvercast.16 mph93%29.97 "Hg9 mi
5:00 AM45 °FOvercast.18 mph93%29.96 "Hg9 mi
4:00 AM45 °FOvercast.14 mph93%29.97 "Hg9 mi
3:00 AM45 °FOvercast.15 mph93%29.98 "Hg9 mi
2:00 AM45 °FMostly cloudy.16 mph93%29.97 "Hg9 mi
1:00 AM45 °FOvercast.15 mph93%29.98 "Hg9 mi
12:00 AM45 °FMostly cloudy.14 mph93%29.97 "Hg9 mi
11:00 PM
Aug 19
45 °FOvercast.12 mph100%29.97 "Hg9 mi
10:00 PM46 °FOvercast.12 mph87%29.98 "Hg9 mi
9:00 PM46 °FMostly cloudy.10 mph87%29.97 "Hg9 mi
8:00 PM46 °FOvercast.12 mph82%29.96 "Hg9 mi
7:00 PM46 °FOvercast.14 mph82%29.95 "Hg9 mi
6:00 PM46 °FMostly cloudy.14 mph82%29.94 "Hg9 mi
5:00 PM46 °FPartly sunny.14 mph76%29.94 "Hg15 mi
Weather by CustomWeather, © 2014

See weather overviewHow to use our weather pages